Location: La Fredeussais
(48.1780°N, 1.3980°W)
Time: 18:46:22
(UTC+00:00)

Meteor 2-12 Rocket - Pass Details

Date: 09 May 2021
Orbit: 935 x 958 km, 82.5° (Epoch: 21 June)

Event Time Altitude Azimuth Distance (km) Brightness Sun altitude
Rises 22:04:27 0° 350° (N) 3,617 8.8 -19.2°
Reaches altitude 10° 22:06:57 10° 351° (N) 2,665 7.8 -19.4°
Maximum altitude 22:13:03 88° 81° (E) 944 4.4 -19.9°
Enters shadow 22:15:49 35° 171° (S) 1,473 4.9 -20.1°
